Location: Les Salelles
(44.4192°N, 4.1044°E)
Time: 16:26:52
(UTC+00:00)

Cosmos 1833 Rocket - Pass Details

Date: 20 January 2021
Orbit: 833 x 839 km, 71.0° (Epoch: 25 February)

Event Time Altitude Azimuth Distance (km) Brightness Sun altitude
Rises 19:31:47 0° 336° (NNW) 3,390 6.2 -31.0°
Reaches altitude 10° 19:34:15 10° 339° (NNW) 2,453 5.3 -31.4°
Enters shadow 19:36:33 25° 346° (NNW) 1,625 4.3 -31.8°
